Regional Weather Roundup
Issued by NWS

Home | Current Version | Previous Version | Text Only | Print | Product List | Glossary Off
Versions: 1 2 3 4 5 6 7 8 9 10 11 12 13 14 15 16 17 18 19 20 21 22 23 24 25 26 27 28

000
ASUS45 KBOU 141510
RWRCO

WEATHER ROUNDUP FOR COLORADO
NATIONAL WEATHER SERVICE DENVER/BOULDER CO
800 AM MST THU DEC 14 2017

NOTE: "FAIR" INDICATES FEW OR NO CLOUDS BELOW 12000 FEET WITH NO
SIGNIFICANT WEATHER AND/OR OBSTRUCTIONS TO VISIBILITY.

COZ001>005-013-030-031-141600-
...NORTHWEST COLORADO...

CITY           SKY/WX    TMP DP  RH WIND       PRES   REMARKS
CRAIG          FAIR      15  11  83 SW9       30.30R WCI   3
HAYDEN         FAIR      18  16  92 S5        30.28S WCI  11
MEEKER         FAIR      26  19  74 NE9       30.27R WCI  17
RABBIT EARS PA CLOUDY    14  12  92 W7        30.16S FOG     WCI   4
STEAMBOAT SPGS FAIR      22  15  76 CALM      30.24S
WALDEN         CLOUDY    21  16  79 N5        30.22S WCI  15
$$

COZ006>008-011-141600-
...WEST CENTRAL VALLEYS...

CITY           SKY/WX    TMP DP  RH WIND       PRES   REMARKS
GRAND JUNCTION FAIR      35  23  61 NE6       30.24R WCI  30
MONTROSE       CLOUDY    32  25  75 CALM      30.21R
EAGLE          CLOUDY    25  24  96 E3        30.25R
RIFLE          FAIR      30  22  72 MISG      30.24R
DELTA          FAIR      30  24  76 CALM      30.21R
NUCLA          CLOUDY    36  23  60 CALM      30.19R
$$

COZ017>023-064>068-141600-
...SOUTHWEST COLORADO...

CITY           SKY/WX    TMP DP  RH WIND       PRES   REMARKS
DURANGO        CLOUDY    27   9  46 NE5       30.04R WCI  22
CORTEZ         CLOUDY    37  25  61 N15G23    30.08R
PAGOSA SPRINGS LGT SNOW  31  22  67 CALM      30.07R
TELLURIDE      LGT SNOW  25  21  83 CALM      30.12R
WOLF CREEK PAS LGT SNOW  14  14 100 N9G22     30.13R VSB 3/4 WCI   2
$$

COZ009-010-012-014-032>034-037-058>063-141600-
...CENTRAL COLORADO...

CITY           SKY/WX    TMP DP  RH WIND       PRES   REMARKS
ASPEN          CLOUDY    27  25  92 N3        30.17R FOG
BUENA VISTA    FAIR      21  19  90 W3        30.18R
COPPER MTN     NOT AVBL
BERTHOUD PASS  HAZE       7  -4  61 NW17G24   30.10R VSB<1/4 WCI -12
COTTONWOOD PAS FLURRIES  27  23  86 CALM      30.15R
GUNNISON       LGT SNOW  26  24  92 E3        30.14R FOG
KREMMLING      FAIR      28  19  69 N10G16    30.24R WCI  19
LEADVILLE      CLOUDY    17  15  92 CALM      30.14R
MONARCH PASS   CLOUDY    12  10  92 NE28      30.17S WCI  -9
SALIDA         CLOUDY    27  24  87 SE7       30.26R WCI  19
SUNLIGHT       CLOUDY   N/A N/A N/A N6        30.22R FOG
WILKERSON PASS FOG       14  10  85 N3        30.15R VSB 1/2
$$

COZ069>075-141600-
...SAN LUIS VALLEY/SANGRE DE CRISTO MOUNTAINS...

CITY           SKY/WX    TMP DP  RH WIND       PRES   REMARKS
ALAMOSA        SNOW      26  24  92 W5        30.12R VSB 1/2 WCI  20
DEL NORTE      LGT SNOW  27  25  94 E3        30.13R
LA VETA PASS   SNOW      16  12  86 N15G23      N/A  VSB 1/4 WCI   1
SAGUACHE       CLOUDY    28  19  69 N12       30.13R WCI  18
$$

COZ035-036-038>040-141600-
...NORTHERN COLORADO FRONT RANGE...

CITY           SKY/WX    TMP DP  RH WIND       PRES   REMARKS
DENVER INTL AP FAIR      27  24  89 SW9       30.20S WCI  18
DMNS CITY PARK NOT AVBL
AURORA         NOT AVBL
FRONT RANGE AP MOCLDY    30  28  93 SW8       30.22R WCI  23
ERIE MUNI ARPT FAIR      26  24  92 CALM      30.26S
BOULDER MUN AP FAIR      30  27  86 SW7       30.20S WCI  23
CENTENNIAL     MOCLDY    25  23  92 SW6       30.20F WCI  18
BROOMFIELD     PTCLDY    28  27  93 S5        30.21S WCI  23
FORT COLLINS   CLOUDY    27  25  92 S6        30.21S WCI  20
LONGMONT       FAIR      27  26  93 W3        30.23S
$$

COZ041-046-047-076>085-087-088-141600-
...PIKES PEAK/PALMER DIVIDE AND SOUTHERN FOOTHILLS...

CITY           SKY/WX    TMP DP  RH WIND       PRES   REMARKS
COLO. SPRINGS  CLOUDY    29  21  72 NW13      30.22R WCI  19
A. F. ACADEMY  NOT AVBL
SCHRIEVER AFB  NOT AVBL
CHEYENNE MTN   MOCLDY    26  20  76 N7        30.14R WCI  19
ELLICOTT         N/A    N/A N/A N/A N9        30.19R
FALCON         FAIR      26  20  80 N8        30.20R WCI  17
FORT CARSON    FAIR      30  22  72 N7        30.21R WCI  23
LIMON          CLOUDY    27  25  92 NW13      30.20R WCI  16
MONUMENT HILL  LGT SNOW  23  21  93 W3        30.20S
CANON CITY     CLOUDY    32  32 100 CALM      30.23S
WALSENBURG     CLOUDY    30  28  93 CALM      30.24R
TRINIDAD       LGT SNOW  28  25  88 CALM      30.24R FOG
$$

COZ042>045-048>051-090-091-141600-
...NORTHEAST COLORADO...

CITY           SKY/WX    TMP DP  RH WIND       PRES   REMARKS
GREELEY ARPT   CLOUDY    32  27  81 SW12      30.21S WCI  23
AKRON          CLOUDY    30  26  85 W13       30.17R WCI  20
BURLINGTON     CLOUDY    33  28  81 NW18      30.16S WCI  22
WRAY           CLOUDY    34  28  80 MISG      30.16R
YUMA           CLOUDY    32  27  80 W12       30.16R WCI  23
STERLING       CLOUDY    34  27  75 W12       30.16S WCI  25
HOLYOKE        FAIR      37  27  65 NW14G21   30.14R
FORT MORGAN    CLOUDY    31  26  81 W8        30.19S WCI  23
$$

COZ086-089-092>099-141600-
...SOUTHEAST COLORADO...

CITY           SKY/WX    TMP DP  RH WIND       PRES   REMARKS
PUEBLO         CLOUDY    32  31  96 W5        30.25R WCI  27
LA JUNTA       LGT SNOW  33  31  92 W9        30.24R WCI  25
LAMAR          CLOUDY    33  31  92 W10       30.21R WCI  25
SPRINGFIELD      N/A     30  30 100 NW12      30.20R WCI  20
$$




USA.gov is the U.S. government's official web portal to all federal, state and local government web resources and services.